This demonstration page uses our WeatherBlox Daily Observations layout. Learn more.

Left ArrowRight Arrow

53.62937, 11.41316

Hourly Observations for June 6, 2019

Temp ( °F °C ) Dew Point ( °F °C ) Humidity (%) Winds ( mph kmh ) Pressure ( in mb ) Visibility ( mi km ) Precip ( " mm )
6:50 am 06:50 Mostly Sunny 70 21 61 16 73 73 E 6 9 29.68 1005 7 11 N/A
7:20 am 07:20 Mostly Sunny 72 22 61 16 69 69 VRB 5 7 29.68 1005 7 11 N/A
7:50 am 07:50 Mostly Sunny 72 22 61 16 69 69 SW 6 9 29.71 1006 7 11 N/A
8:20 am 08:20 Mostly Sunny 73 23 63 17 69 69 S 6 9 29.71 1006 7 11 N/A
8:50 am 08:50 Mostly Sunny 73 23 61 16 65 65 S 6 9 29.68 1005 7 11 N/A
9:20 am 09:20 Mostly Sunny 75 24 61 16 61 61 VRB 5 7 29.71 1006 7 11 N/A
9:50 am 09:50 Mostly Sunny 75 24 61 16 61 61 W 6 9 29.71 1006 7 11 N/A
10:20 am 10:20 Mostly Sunny 75 24 59 15 57 57 WNW 6 9 29.71 1006 7 11 N/A
10:50 am 10:50 Mostly Sunny 75 24 57 14 54 54 W 7 11 29.71 1006 7 11 N/A
11:20 am 11:20 Mostly Sunny 77 25 57 14 51 51 W 9 15 29.73 1007 7 11 N/A
11:50 am 11:50 Mostly Sunny 72 22 57 14 61 61 W 10 17 29.74 1007 7 11 N/A
12:20 pm 12:20 Mostly Cloudy with Thunderstorms 66 19 63 17 88 88 W 12 19 29.77 1008 30 48 N/A
12:50 pm 12:50 Partly Cloudy with Showers Nearby 68 20 64 18 88 88 W 5 7 29.77 1008 30 48 N/A
1:20 pm 13:20 Partly Cloudy with Nearby Thunderstorms 70 21 61 16 73 73 W 8 13 29.77 1008 30 48 N/A
1:50 pm 13:50 Mostly Cloudy with Light Showers 66 19 63 17 88 88 W 8 13 29.80 1009 30 48 N/A
2:20 pm 14:20 Partly Cloudy with Light Showers 66 19 63 17 88 88 W 5 7 29.80 1009 30 48 N/A
2:50 pm 14:50 Partly Cloudy with Light Showers 66 19 63 17 88 88 WSW 8 13 29.80 1009 30 48 N/A
3:20 pm 15:20 Partly Cloudy with Showers Nearby 66 19 61 16 83 83 W 7 11 29.80 1009 30 48 N/A
3:50 pm 15:50 Mostly Cloudy 64 18 59 15 83 83 W 12 19 29.82 1010 30 48 N/A
4:20 pm 16:20 Mostly Cloudy 63 17 57 14 83 83 W 13 20 29.82 1010 30 48 N/A
4:50 pm 16:50 Mostly Cloudy 63 17 57 14 83 83 W 9 15 29.85 1011 30 48 N/A
5:20 pm 17:20 Partly Cloudy 63 17 55 13 77 77 W 12 19 29.85 1011 30 48 N/A
5:50 pm 17:50 Mostly Cloudy 63 17 55 13 77 77 W 10 17 29.85 1011 30 48 N/A
6:20 pm 18:20 Mostly Cloudy 61 16 54 12 77 77 W 9 15 29.88 1012 30 48 N/A
6:50 pm 18:50 Mostly Sunny 61 16 52 11 72 72 W 8 13 29.88 1012 30 48 N/A
7:20 pm 19:20 Mostly Sunny 59 15 52 11 77 77 W 6 9 29.91 1013 30 48 N/A
7:50 pm 19:50 Mostly Sunny 59 15 52 11 77 77 W 7 11 29.91 1013 7 11 N/A
8:20 pm 20:20 Mostly Sunny 59 15 52 11 77 77 W 7 11 29.91 1013 7 11 N/A
8:50 pm 20:50 Mostly Sunny 59 15 50 10 72 72 W 7 11 29.91 1013 30 48 N/A

Powered by AerisWeather